Regional Weather Roundup
Issued by NWS

Home | Current Version | Previous Version | Text Only | Print | Product List | Glossary On
Versions: 1 2 3 4 5 6 7 8 9 10 11 12 13 14 15 16 17 18 19 20 21 22 23 24 25 26 27 28 29 30 31 32 33 34 35 36 37 38 39 40 41 42 43 44 45 46 47 48 49 50
000
ASUS43 KOAX 182210
RWRNE

WEATHER ROUNDUP FOR NEBRASKA
NATIONAL WEATHER SERVICE OMAHA NE
400 PM CST THU DEC 18 2014

NOTES: SATELLITE DATA IS BEING USED TO AUGMENT CLOUD COVER ABOVE
       12000 FEET.
       "FAIR" INDICATES FEW OR NO CLOUDS BELOW 12,000 FEET WITH NO
       SIGNIFICANT WEATHER AND/OR OBSTRUCTIONS TO VISIBILITY.

  * THESE STATIONS DO NOT REPORT WEATHER SUCH AS RAIN...SNOW OR FOG.

NEZ001>004-019>022-054>056-182300-
NEBRASKA PANHANDLE

CITY           SKY/WX    TMP DP  RH WIND       PRES   REMARKS
SCOTTSBLUFF    MOSUNNY   19  16  88 CALM      30.03R
ALLIANCE       SUNNY     30  25  81 W5        30.00S WCI  25
CHADRON        SUNNY     36  24  62 SW6       30.01S WCI  31
KIMBALL        MOSUNNY   40  24  51 NW9       30.00S WCI  34
SIDNEY         MOSUNNY   39  26  59 MISG      30.03R
$$

NEZ057>060-069>072-079>082-182300-
SOUTHWEST NEBRASKA

CITY           SKY/WX    TMP DP  RH WIND       PRES   REMARKS
NORTH PLATTE   CLOUDY    28  25  88 W8        30.08R FOG     WCI  20
IMPERIAL       PTSUNNY   29  25  85 CALM      30.07R
LEXINGTON      CLOUDY    30  27  87 W5        30.11S WCI  25
MCCOOK         CLOUDY    29  26  89 SW3       30.10S
OGALLALA       SUNNY     30  25  81 CALM      30.05S
$$

NEZ005>010-023>029-035>040-094-182300-
NORTH CENTRAL NEBRASKA

CITY           SKY/WX    TMP DP  RH WIND       PRES   REMARKS
VALENTINE      CLEAR     26  22  84 S5        30.04S WCI  20
AINSWORTH      CLOUDY    27  25  92 SW6       30.05S FOG     WCI  20
BROKEN BOW     CLOUDY    30  27  88 SW7       30.08S WCI  23
O`NEILL        CLOUDY    28  26  92 SW3       30.12R
$$

NEZ041-046>049-061>064-073>077-083>087-182300-
SOUTH CENTRAL NEBRASKA

CITY           SKY/WX    TMP DP  RH WIND       PRES   REMARKS
GRAND ISLAND   CLOUDY    29  25  85 CALM      30.16R
AURORA         CLOUDY    30  26  86 CALM      30.15S FOG
HASTINGS       CLOUDY    30  24  78 SW3       30.14R
HEBRON         CLOUDY    31  25  80 CALM      30.18S
HOLDREGE       CLOUDY    29  25  83 W9        30.12R WCI  21
KEARNEY *      CLOUDY    28  25  86 SW8       30.13R WCI  20
YORK           CLOUDY    28  25  86 S3        30.16S
$$

NEZ011>018-030>034-042>045-182300-
NORTHEAST NEBRASKA

CITY           SKY/WX    TMP DP  RH WIND       PRES   REMARKS
NORFOLK        CLOUDY    29  24  82 SW5       30.16R WCI  24
ALBION         CLOUDY    29  23  81 S3        30.15R
BLAIR          CLOUDY    31  26  83 CALM      30.19S
COLUMBUS *     CLOUDY    30  21  69 S5        30.18S WCI  25
FREMONT        CLOUDY    32  27  81 SE3       30.19S
TEKAMAH        CLOUDY    31  25  78 SE6       30.21R HAZE    WCI  25
WAYNE          CLOUDY    30  25  80 S6        30.18R WCI  24
$$

NEZ050>053-065>068-078-088>093-182300-
SOUTHEAST NEBRASKA

CITY           SKY/WX    TMP DP  RH WIND       PRES   REMARKS
LINCOLN        CLOUDY    32  27  81 SW3       30.20S
OMAHA EPPLEY   CLOUDY    31  26  82 SE6       30.22R WCI  25
BEATRICE       CLOUDY    31  28  86 CALM      30.19R
FALLS CITY     CLOUDY    30  26  85 E3        30.21R
NEBRASKA CITY  CLOUDY    30  28  90 CALM      30.20R
PLATTSMOUTH    CLOUDY    30  26  83 S3        30.20R
$$

NEZ044-045-051>053-067-182300-
OMAHA AREA

CITY           SKY/WX    TMP DP  RH WIND       PRES   REMARKS
OMAHA EPPLEY   CLOUDY    31  26  82 SE6       30.22R WCI  25
BLAIR          CLOUDY    31  26  83 CALM      30.19S
FREMONT        CLOUDY    32  27  81 SE3       30.19S
MILLARD        CLOUDY    32  26  78 SE5       30.21R WCI  27
OFFUTT AFB     CLOUDY    31  26  82 SE2       30.20S
PLATTSMOUTH    CLOUDY    30  26  83 S3        30.20R
WAHOO          CLOUDY    32  26  80 CALM      30.19S
$$


USA.gov is the U.S. government's official web portal to all federal, state and local government web resources and services.